Theta_e
350 353 353 346 354 353 356 355 351 352 349 350 350 349 350 351 349 355 345 347 348 347 344 343 343 343 340 337 335 333 332 333 335 334 332 334 334 332 332 333 334 333 333 334 334 334 335 335 338
350 355 349 340 356 359 358 352 354 351 348 351 351 351 350 351 348 348 350 350 350 348 343 343 342 341 339 338 336 334 334 336 336 333 332 331 333 331 331 333 333 331 333 334 334 334 333 334 334
355 356 358 361 353 357 355 351 351 349 349 349 350 350 350 349 350 350 350 349 348 348 348 342 341 340 339 339 338 336 336 336 335 333 332 331 332 332 333 333 330 330 333 334 335 333 332 333 333
360 357 361 361 351 350 349 348 348 347 349 348 350 351 351 350 350 350 350 348 350 351 345 344 344 342 340 339 339 337 336 335 334 333 332 331 333 333 334 330 332 331 333 336 334 337 332 332 336
361 352 357 352 344 350 347 346 347 347 348 350 349 353 352 349 350 350 349 349 350 350 344 344 343 342 341 341 341 339 336 335 332 332 332 333 334 334 332 331 337 334 336 335 338 337 331 332 336
356 353 357 341 340 345 346 348 347 347 348 349 349 351 352 352 351 351 350 349 350 349 347 344 344 342 340 340 340 339 336 333 332 332 333 334 334 334 331 339 339 338 336 337 339 340 340 335 338
349 352 348 343 340 342 344 346 348 346 346 348 351 351 351 352 353 352 351 352 348 350 351 345 344 343 339 338 337 335 334 333 332 333 334 334 335 333 335 339 341 337 339 341 338 339 339 339 339
342 349 352 346 340 340 340 343 344 345 348 346 348 349 351 352 353 352 351 351 351 350 352 350 345 342 336 334 333 332 332 332 333 333 333 336 336 348 348 348 344 341 343 341 338 337 340 345 344
346 345 348 347 343 340 340 339 344 346 345 345 349 348 349 349 354 351 352 351 351 351 350 351 352 346 343 335 334 333 333 333 334 334 337 337 348 348 352 350 346 340 339 341 339 341 345 346 346
343 350 345 345 343 341 340 339 340 342 343 345 349 349 349 348 352 352 351 350 351 351 351 349 350 350 347 350 336 335 333 333 337 341 345 341 349 351 348 346 347 345 346 343 346 346 348 347 349
341 343 342 343 342 341 342 340 339 342 343 344 349 350 349 348 347 350 351 349 351 349 349 351 347 349 348 350 339 336 341 343 344 348 350 349 350 349 351 348 347 350 351 348 348 349 347 348 345
341 341 341 342 342 343 342 339 339 341 342 344 349 350 350 348 347 346 348 348 350 349 352 349 347 346 349 348 344 349 350 348 349 350 347 346 347 349 350 350 350 351 348 349 348 349 349 346 345
336 336 340 336 336 339 342 341 339 340 342 343 346 348 349 349 347 346 347 347 351 343 353 353 349 349 351 348 349 350 349 348 349 349 347 343 349 350 351 348 347 347 350 350 347 346 347 347 345
335 336 337 336 337 338 343 342 340 339 341 342 345 346 348 348 347 346 347 348 351 349 350 353 352 346 352 348 351 351 347 349 347 348 350 349 345 350 351 347 347 347 348 345 346 346 347 342 342
334 335 336 337 337 339 342 343 342 340 340 343 345 345 346 347 348 347 346 347 349 348 349 349 352 350 349 347 351 350 352 349 348 350 350 346 348 344 345 348 349 347 348 347 347 346 343 342 344
333 334 336 338 338 340 340 346 341 341 340 342 345 344 345 346 346 347 347 347 348 349 349 351 352 354 351 350 351 348 347 348 349 351 348 350 350 349 348 349 349 350 349 348 350 343 347 342 341
333 335 336 339 339 341 341 347 345 342 341 342 343 344 344 345 345 346 347 347 348 349 350 350 351 352 354 349 351 351 351 350 348 349 352 348 350 350 348 348 349 351 349 346 345 346 344 342 339
333 336 337 341 341 341 347 348 342 341 342 342 342 343 344 344 345 346 347 347 348 349 350 351 352 352 352 352 348 354 349 351 348 350 348 351 349 352 349 346 350 347 344 346 346 345 342 335 336
333 337 338 341 341 340 349 347 344 343 344 342 342 342 343 345 345 346 347 347 347 349 350 351 351 351 355 354 353 350 352 351 348 349 351 350 350 346 346 347 347 346 343 349 346 342 337 337 338
333 335 339 341 343 343 344 351 347 347 345 343 343 342 342 342 344 346 348 348 348 349 350 351 352 352 351 354 353 351 348 351 348 349 348 351 349 346 349 345 346 347 346 347 346 337 332 338 338
333 335 337 339 341 342 341 342 346 345 345 345 344 344 342 342 342 346 347 348 349 350 351 352 353 353 353 352 352 350 353 354 354 352 348 351 349 348 350 347 347 350 349 343 341 339 336 338 340
333 334 335 337 342 344 342 346 349 346 349 347 346 346 346 343 342 343 346 349 349 350 351 352 352 353 352 351 356 352 353 353 351 352 349 346 351 346 349 347 347 348 343 338 338 336 335 333 339
334 335 336 336 339 345 347 346 347 347 349 350 348 346 346 347 344 343 346 347 349 350 353 353 353 354 352 352 353 356 353 350 345 346 347 348 351 348 350 350 349 343 334 337 338 341 327 339 336
332 333 335 336 337 341 344 345 346 348 346 343 346 346 346 347 347 344 344 346 348 350 353 353 354 355 354 353 352 354 355 348 351 348 348 348 349 346 347 348 344 341 320 339 337 331 328 336 337
329 330 336 338 340 340 341 347 347 346 345 344 343 345 346 347 348 346 345 347 349 350 352 355 355 355 355 352 354 350 356 350 351 349 348 349 340 347 343 342 341 332 321 339 336 339 338 330 331
328 329 335 339 339 339 340 341 346 346 344 342 343 344 344 347 348 347 347 346 349 349 351 354 356 356 356 354 354 351 350 354 347 353 351 349 345 345 347 345 338 333 327 339 342 335 328 336 334
328 328 330 333 335 338 339 339 338 342 345 342 341 341 341 346 348 348 347 348 349 350 349 352 356 356 354 354 351 352 348 347 349 351 353 350 345 346 345 345 344 337 335 333 339 332 335 339 340
328 329 328 330 337 340 339 342 343 344 347 345 343 341 339 338 347 348 347 348 349 350 350 351 354 356 355 354 351 348 344 338 340 351 350 349 351 345 345 343 341 329 328 337 333 324 331 326 328
328 328 328 329 332 337 341 342 343 346 348 347 344 340 339 338 345 346 348 346 348 350 351 352 354 356 356 355 354 348 345 335 335 349 353 351 348 347 344 343 342 335 328 328 323 324 337 330 327
330 329 328 329 335 333 336 341 339 342 342 344 342 340 338 338 339 344 347 346 346 347 349 352 354 356 357 357 354 350 346 335 333 339 349 351 350 346 344 341 341 340 330 325 320 321 328 326 330
Wind_Speed
12 12 15 9 2 1 2 8 13 9 17 30 30 14 5 3 4 13 20 18 21 21 23 24 23 24 24 24 25 25 26 24 22 19 18 17 16 14 13 13 12 12 12 11 12 13 13 13 12
16 17 23 9 1 4 2 14 13 10 19 32 31 20 21 21 27 23 23 23 24 22 23 23 24 24 23 24 24 24 24 22 19 17 16 15 14 13 12 12 12 11 11 11 11 12 11 11 11
18 23 8 6 5 4 9 12 14 16 15 18 28 16 12 23 23 23 26 28 25 20 19 23 23 23 23 23 22 22 22 20 17 14 12 11 11 11 11 10 10 10 9 11 12 11 10 10 10
11 13 21 15 17 7 8 16 12 15 23 25 29 18 26 21 27 29 29 29 23 21 18 22 22 22 22 21 20 19 19 18 15 12 9 8 8 8 9 9 10 9 9 10 11 11 10 10 10
18 4 5 8 8 13 13 14 17 14 20 31 31 26 26 27 29 28 26 25 22 20 19 20 20 21 20 20 19 18 18 16 13 10 8 8 7 7 7 8 9 8 8 10 10 11 10 10 11
8 12 14 7 11 8 12 19 26 13 28 27 30 28 23 30 30 24 23 22 23 18 18 18 19 19 19 18 18 17 16 14 12 10 9 7 5 6 7 8 8 8 8 9 10 10 10 10 12
10 10 6 8 10 10 8 13 14 19 21 24 31 22 27 27 24 24 23 20 20 20 17 17 19 19 18 18 17 16 15 14 12 11 8 4 5 6 7 7 8 9 8 9 10 10 10 11 12
9 4 20 20 10 13 9 9 14 16 25 25 26 17 23 30 28 26 21 19 22 15 16 16 17 19 19 18 16 15 15 13 11 8 5 4 5 8 6 9 9 10 8 9 11 10 11 13 15
27 6 5 15 12 14 9 14 14 25 20 17 7 28 29 25 34 29 26 21 20 22 16 16 16 13 15 17 17 15 13 11 9 7 4 4 3 6 4 7 10 11 10 8 11 11 10 10 11
5 2 5 22 8 8 13 15 14 12 16 12 27 29 29 27 33 34 27 22 21 19 19 17 19 14 11 12 14 12 10 8 6 4 2 0 7 3 4 9 7 7 10 7 8 8 8 10 11
10 5 13 22 21 18 14 18 13 22 12 18 34 31 30 28 25 29 28 26 23 21 21 23 16 18 15 17 8 7 4 4 3 4 3 2 8 9 5 7 5 2 7 10 7 5 10 9 8
14 24 25 21 16 17 23 21 13 17 17 24 27 28 30 28 26 24 25 23 28 22 24 21 17 17 17 17 6 7 8 4 6 8 8 7 2 5 4 6 7 5 6 9 7 10 9 8 5
15 14 26 8 7 8 21 17 18 12 24 23 25 28 29 27 24 22 23 23 24 19 24 24 19 20 17 15 10 11 13 8 7 10 9 4 4 11 3 4 6 6 5 6 4 5 6 11 9
19 16 15 14 11 10 16 17 16 16 19 24 26 28 29 28 26 24 23 25 26 21 26 22 20 20 18 21 14 10 17 10 10 9 11 10 8 10 6 5 3 7 5 9 9 7 8 7 6
25 18 8 13 14 10 14 16 12 22 17 23 24 27 28 28 26 26 23 23 23 23 22 24 21 18 24 20 18 20 11 10 8 10 7 15 9 13 11 7 6 6 10 13 10 8 6 5 7
22 18 16 18 13 14 17 12 13 25 19 22 23 26 28 28 27 26 25 24 23 24 25 23 18 19 17 19 17 21 13 15 16 9 14 13 14 13 11 5 5 10 6 8 11 8 5 7 8
22 17 20 10 15 16 13 6 12 20 20 24 24 25 28 28 28 28 26 26 26 25 26 25 21 22 20 16 17 13 14 14 12 16 13 13 12 12 8 6 7 8 10 12 9 3 5 5 6
20 20 18 18 17 18 21 12 23 38 25 24 25 26 27 28 29 30 28 27 27 28 27 27 26 22 23 20 17 18 15 17 17 11 12 16 12 9 13 6 11 15 11 7 8 0 8 8 3
22 21 22 14 3 18 22 17 11 34 26 23 26 25 28 29 28 29 28 29 28 29 30 30 30 28 22 22 23 21 22 15 12 12 17 17 18 14 17 12 11 5 3 7 4 7 6 3 1
27 27 24 21 24 23 18 27 32 30 23 26 27 26 27 28 30 30 31 30 31 31 32 31 32 32 32 26 24 20 18 15 12 16 16 17 11 12 11 7 5 5 5 3 9 13 4 3 5
27 26 23 22 19 21 18 19 21 24 24 24 27 29 29 30 31 34 33 33 33 34 34 34 33 33 32 29 23 21 19 21 9 17 15 19 16 16 10 10 9 6 10 5 6 4 2 1 2
26 26 27 24 16 11 14 12 11 18 22 21 26 26 31 32 33 33 37 36 35 35 36 35 33 31 31 29 24 19 21 17 14 13 14 16 14 6 12 8 8 11 5 7 6 3 4 3 3
26 26 27 25 16 16 22 11 12 22 22 25 21 30 30 32 34 35 40 39 36 35 37 37 33 32 31 29 30 23 22 20 15 15 16 15 9 11 11 10 12 13 11 8 10 10 6 4 1
25 26 26 23 19 16 20 17 19 18 16 22 22 31 31 32 35 37 37 39 40 37 37 39 37 35 32 32 29 26 22 22 19 17 16 17 18 16 18 18 15 13 13 12 9 10 7 12 9
28 23 16 18 17 17 19 20 12 23 21 22 3 27 34 31 32 36 39 41 44 42 39 39 40 38 36 34 32 32 27 23 21 20 21 14 15 15 15 18 17 13 13 12 8 7 6 5 9
27 26 17 21 18 19 23 21 16 23 22 22 44 45 37 38 34 36 41 41 43 45 41 41 41 40 37 34 37 31 34 28 30 23 21 21 16 16 16 14 14 12 11 14 10 9 8 2 3
26 24 27 26 23 18 19 23 24 15 22 17 14 24 21 38 36 37 38 41 40 44 46 43 41 41 39 36 38 37 32 38 32 31 25 19 21 18 21 20 19 16 15 12 13 10 8 9 7
29 17 22 19 26 25 21 22 14 18 22 19 11 20 21 16 34 35 36 39 41 41 44 43 43 42 40 38 38 39 37 36 38 31 29 27 21 22 21 24 24 19 18 17 16 15 18 8 6
18 23 23 21 21 18 18 17 15 19 17 19 21 27 21 17 29 31 35 37 39 38 40 43 43 41 42 40 39 40 40 38 37 36 32 31 29 26 24 26 26 22 21 22 20 19 18 10 8
29 27 27 17 21 20 19 16 14 11 18 16 15 23 20 29 26 30 33 38 39 40 40 42 43 44 44 44 40 42 41 41 42 40 38 36 34 33 33 33 30 28 26 27 22 23 22 14 14
Wind_Direction
168 137 114 128 294 150 231 55 66 68 86 83 82 87 159 195 98 110 139 130 126 127 130 135 137 140 139 137 134 133 133 132 128 118 115 105 99 94 89 83 75 68 61 53 44 43 43 42 52
178 162 159 101 84 4 184 121 119 248 106 107 105 117 95 81 98 120 134 135 132 131 133 135 138 142 142 138 138 137 137 134 126 124 115 100 93 88 82 77 64 58 56 48 40 34 44 42 47
181 197 247 182 174 164 113 129 145 117 105 79 111 120 88 113 112 126 127 132 135 131 140 140 143 143 145 140 138 140 138 135 133 130 117 101 92 87 80 69 56 54 51 39 33 28 33 47 47
187 241 256 253 112 119 70 106 123 99 106 104 98 83 103 109 121 128 135 137 136 136 150 138 138 141 146 142 140 143 143 141 138 131 118 109 93 86 78 57 43 45 47 33 32 35 32 37 51
209 181 250 293 76 116 114 111 54 102 100 106 109 107 110 122 122 128 137 139 137 143 147 141 139 140 148 148 145 148 150 147 141 135 129 116 103 90 68 44 35 39 35 32 36 39 37 38 41
190 246 278 119 125 122 124 124 136 102 99 108 111 101 124 128 129 135 137 143 138 144 148 149 147 149 148 147 150 150 150 151 153 147 136 126 101 75 46 37 38 36 32 36 39 39 38 36 37
16 309 274 234 123 107 109 145 143 109 129 123 120 123 131 125 136 143 144 146 145 147 158 155 153 153 150 148 148 150 156 161 157 149 148 128 80 46 32 14 24 22 28 32 32 41 41 41 37
213 264 278 317 101 117 116 102 156 116 114 131 128 135 142 152 148 145 141 147 149 152 148 140 157 155 153 150 152 157 158 155 157 160 156 110 78 33 13 12 358 357 8 26 35 47 58 52 46
174 345 329 282 111 117 168 100 83 115 135 137 113 144 143 152 151 144 141 149 152 148 149 155 152 160 159 165 160 160 157 161 167 162 135 111 61 21 20 357 348 358 11 34 52 51 53 40 34
105 354 287 215 175 164 155 135 115 122 139 134 133 142 144 154 151 146 146 154 162 157 167 153 161 162 169 170 178 177 176 177 172 115 44 132 339 75 337 310 313 25 20 26 51 48 24 24 14
135 195 254 291 125 116 324 131 142 134 175 133 131 144 154 156 162 157 154 159 163 167 175 163 166 169 161 190 197 169 133 153 125 158 245 309 299 227 190 307 343 18 349 14 352 0 11 12 326
182 196 233 235 140 141 203 138 143 153 164 152 147 156 160 163 169 168 165 163 159 170 176 179 183 171 172 200 177 159 203 207 215 207 239 223 261 285 233 333 334 344 339 346 342 341 337 322 327
239 251 220 246 203 212 205 144 133 132 144 148 151 162 167 169 173 173 169 169 166 165 188 183 175 172 184 173 196 203 205 193 228 227 279 306 230 262 306 277 300 284 335 311 337 314 295 305 313
256 237 240 264 209 205 171 142 135 139 145 153 156 168 174 176 177 176 178 172 167 170 171 170 171 183 188 189 197 209 198 221 197 244 254 265 226 261 250 290 324 315 284 293 288 273 292 342 330
269 280 227 233 253 179 228 144 165 145 159 156 164 172 178 182 182 182 184 178 175 177 180 193 195 209 200 200 210 194 198 216 225 231 232 271 276 256 255 245 272 292 286 304 302 315 324 351 337
264 249 260 233 189 168 225 169 164 152 173 168 168 176 180 187 186 186 188 185 186 183 188 191 193 201 204 202 212 213 197 214 214 245 216 227 263 271 260 262 280 275 287 295 281 311 316 350 327
244 251 233 192 172 151 195 139 292 166 176 172 176 180 183 186 190 188 191 190 190 191 194 193 196 203 211 210 213 221 210 230 226 222 217 278 269 271 274 255 291 249 259 277 290 268 351 313 286
235 230 236 179 196 189 114 117 284 276 175 185 181 183 186 189 194 189 195 194 195 195 200 199 198 201 220 220 211 211 215 233 236 238 256 257 241 238 268 244 252 276 287 288 300 343 301 321 338
247 240 230 166 211 210 147 154 237 250 211 191 180 192 188 193 195 194 195 195 197 198 201 206 200 202 199 201 207 211 214 220 232 234 236 237 254 279 257 232 247 274 311 261 324 279 280 325 287
244 256 258 185 173 227 182 171 184 217 192 187 185 191 198 197 194 197 194 200 198 200 203 209 209 205 209 210 219 224 214 218 231 235 247 259 253 268 258 253 235 275 263 238 256 318 201 183 268
234 243 252 257 185 202 218 214 185 177 186 193 194 190 197 199 200 191 197 200 202 200 206 210 211 210 214 212 222 217 212 230 223 219 243 238 266 253 242 248 194 207 206 254 285 360 16 124 302
226 234 251 262 181 187 224 223 206 219 188 192 192 201 194 196 199 199 193 198 204 204 206 211 216 216 218 212 211 211 221 212 218 219 247 256 247 228 224 241 213 224 181 230 271 235 218 156 91
232 229 238 253 244 190 217 250 241 209 190 189 192 199 204 194 199 201 196 198 202 205 204 207 215 215 218 218 204 211 217 218 212 221 231 212 224 204 212 223 213 234 201 218 209 223 189 153 192
231 241 248 244 251 241 219 214 241 203 188 254 200 197 199 199 195 199 200 198 199 205 202 205 210 216 217 216 214 203 218 202 218 207 220 217 232 241 199 222 214 229 190 212 231 231 203 187 196
231 226 234 238 236 247 223 206 211 242 197 208 107 246 190 195 196 193 194 196 196 199 202 201 208 215 220 214 217 206 205 206 204 210 217 226 211 228 215 211 219 226 193 203 210 236 197 226 197
213 228 228 229 230 241 234 243 213 200 185 186 191 212 190 185 194 195 196 197 197 195 200 201 205 212 218 217 213 213 210 209 209 207 213 215 211 216 241 232 238 231 196 192 216 229 198 237 281
217 225 229 240 241 247 239 225 235 227 180 174 198 231 204 188 187 194 197 197 199 197 198 201 203 210 219 222 214 214 213 211 210 212 203 214 205 212 224 235 244 231 210 196 211 197 182 189 252
230 217 223 235 240 243 243 253 213 222 167 194 196 227 218 231 180 188 194 196 197 199 199 200 204 213 218 223 220 215 218 213 214 213 215 215 214 201 229 234 238 226 206 208 210 190 187 191 232
212 229 235 232 239 248 243 246 239 204 198 194 184 203 216 220 185 189 192 193 195 198 199 199 203 208 214 220 219 218 220 220 217 212 218 224 215 216 220 232 239 230 216 215 209 198 204 230 254
218 213 226 239 227 235 253 248 236 236 212 187 203 213 214 227 203 189 190 189 190 195 199 201 202 203 212 215 217 218 220 222 224 221 216 222 223 221 221 230 235 236 227 224 214 201 200 238 292